This is the latest recevied weather packets stored in our database for station/object XE2OR-10. If no packets are shown the sender has not sent any weather packets the latest 10 day(s).
| Time | Temp. | Humidity | Pressure | Rain* | Wind** | Luminosity | Snow |
|---|---|---|---|---|---|---|---|
| 1777650232 | 17.78° C | 99% | 1018.1 hPa | 0 mm | - | 81 W/m² | - |
| 1777649929 | 17.78° C | 99% | 1018.1 hPa | 0 mm | - | 55 W/m² | - |
| 1777649629 | 17.78° C | 99% | 1018 hPa | 0 mm | - | 69 W/m² | - |
| 1777649329 | 17.78° C | 99% | 1017.9 hPa | 0 mm | - | 126 W/m² | - |
| 1777649033 | 17.78° C | 99% | 1017.9 hPa | 0 mm | - | 95 W/m² | - |
| 1777648729 | 17.78° C | 99% | 1017.7 hPa | 0 mm | - | 58 W/m² | - |
| 1777648433 | 17.78° C | 99% | 1017.5 hPa | 0 mm | - | 102 W/m² | - |
| 1777648129 | 17.78° C | 99% | 1017.1 hPa | 0 mm | - | 82 W/m² | - |
| 1777647829 | 17.78° C | 99% | 1017.1 hPa | 0 mm | - | 170 W/m² | - |
| 1777647529 | 17.78° C | 99% | 1017.3 hPa | 0 mm | - | 98 W/m² | - |
| 1777647232 | 17.78° C | 99% | 1017.5 hPa | 0 mm | - | 59 W/m² | - |
| 1777646929 | 17.78° C | 99% | 1017.3 hPa | 0 mm | - | 74 W/m² | - |
| 1777646632 | 17.78° C | 99% | 1017.4 hPa | 0 mm | - | 29 W/m² | - |
| 1777646329 | 17.78° C | 99% | 1017.1 hPa | 0 mm | - | 30 W/m² | - |
| 1777646029 | 17.78° C | 99% | 1017.2 hPa | 0 mm | - | 38 W/m² | - |
| 1777645729 | 17.78° C | 99% | 1017.1 hPa | 0 mm | - | 42 W/m² | - |
| 1777645432 | 18.33° C | 99% | 1016.9 hPa | 0 mm | - | 35 W/m² | - |
| 1777645129 | 17.78° C | 99% | 1016.7 hPa | 0 mm | - | 29 W/m² | - |
| 1777644833 | 17.78° C | 99% | 1016.8 hPa | 0 mm | - | 19 W/m² | - |
| 1777644529 | 17.78° C | 99% | 1016.8 hPa | 0 mm | - | 12 W/m² | - |
| 1777644229 | 17.78° C | 99% | 1016.6 hPa | 0 mm | - | 22 W/m² | - |
| 1777643929 | 17.78° C | 99% | 1016.8 hPa | 0 mm | - | 26 W/m² | - |
| 1777643633 | 17.78° C | 99% | 1016.4 hPa | 0 mm | - | 17 W/m² | - |
| 1777643329 | 18.33° C | 99% | 1016 hPa | 0 mm | - | 36 W/m² | - |
| 1777643032 | 18.33° C | 99% | 1015.8 hPa | 0 mm | - | 66 W/m² | - |
* Rain latest hour (hover to see other rain measurements)
** Current wind speed in m/s (hover to see current wind gust speed)